Location: ???? ?????????
(44.3677°N, 135.2344°E)
Time: 12:00:40
(UTC+00:00)

CENTAUR R/B - Pass Details

Date: 19 May 2025
Orbit: 645 x 1537 km, 63.4° (Epoch: 14 June)

Event Time Altitude Azimuth Distance (km) Brightness Sun altitude
Rises 16:08:20 0° 319° (NW) 4,263 6.3 -23.6°
Reaches altitude 10° 16:11:05 10° 315° (NW) 3,395 5.6 -23.4°
Maximum altitude 16:19:20 54° 242° (WSW) 1,749 3.5 -22.9°
Enters shadow 16:23:20 34° 185° (S) 2,304 3.9 -22.7°
